Weather History for LTCF - October, 2012

Change the Weather History Date:

Friday, October 5, 2012

  Actual Average Record
Temperature  
Mean Temperature 52 °F -  
Max Temperature 65 °F 54 °F - ()
Min Temperature 40 °F 31 °F - ()
Degree Days  
Heating Degree Days 12    
Growing Degree Days 2 (Base 50)    
Moisture  
Dew Point 43 °F    
Average Humidity 75    
Maximum Humidity 100    
Minimum Humidity 45    
Precipitation  
Precipitation 0.01 in 0.05 in - ()
Sea Level Pressure  
Sea Level Pressure 30.15 in    
Wind  
Wind Speed 5 mph ()    
Max Wind Speed 16 mph    
Max Gust Speed -    
Visibility 6.4 miles    
Events Rain , Thunderstorm    
T = Trace of Precipitation, MM = Missing Value Source: Averaged Metar Reports

Daily Weather History Graph

Daily Weather History Graph

Search for Another Location

Airport or City:

Trip Planner

Search our weather history database for the weather conditions in past years. The results will help you decide how hot, cold, wet, or windy it might be!

Date:

Astronomy

Oct. 05, 2012 Rise Set
Actual Time 6:08 AM EEST 5:43 PM EEST
Civil Twilight 5:41 AM EEST 6:10 PM EEST
Nautical Twilight 5:09 AM EEST 6:41 PM EEST
Astronomical Twilight 4:37 AM EEST 7:13 PM EEST
Moon 8:47 PM EEST (10/5) 10:58 AM EEST (10/5)
Length of Visible Light 12h 29m
Length of Day
11h 34m
Waning Gibbous, 76% of the Moon is Illuminated
Oct 5
Waning Gibbous
Oct 8
Last Quarter
Oct 15
New
Oct 22
First Quarter
Oct 29
Full

Hourly Weather History & Observations

Time (EEST) Temp. Windchill Dew Point Humidity Pressure Visibility Wind Dir Wind Speed Gust Speed Precip Events Conditions
12:50 AM 46.4 °F 41.5 °F 42.8 °F 87% 30.12 in 6.2 mi East 10.4 mph - N/A   Mostly Cloudy
1:50 AM 46.4 °F 44.3 °F 44.6 °F 93% 30.12 in 6.2 mi NNE 4.6 mph - N/A   Mostly Cloudy
2:50 AM 44.6 °F - 44.6 °F 100% 30.12 in 6.2 mi Variable 2.3 mph - N/A   Mostly Cloudy
3:00 AM 45 °F - 44 °F 95%  in 6 mi West 2.3 mph - -   Partly Cloudy
3:50 AM 44.6 °F 43.1 °F 42.8 °F 93% 30.12 in 6.2 mi WSW 3.5 mph - N/A   Scattered Clouds
4:50 AM 44.6 °F - 42.8 °F 93% 30.12 in 6.2 mi South 2.3 mph - N/A   Scattered Clouds
5:50 AM 42.8 °F - 41.0 °F 93% 30.12 in 6.2 mi NW 1.2 mph - N/A   Scattered Clouds
6:50 AM 41.0 °F - 41.0 °F 100% 30.12 in 6.2 mi NW 2.3 mph - N/A   Scattered Clouds
7:50 AM 42.8 °F - 42.8 °F 100% 30.15 in 6.2 mi Calm Calm - N/A   Scattered Clouds
8:50 AM 53.6 °F - 44.6 °F 72% 30.15 in - SW 3.5 mph - N/A   Clear
9:00 AM 54 °F - 45 °F 62%  in 12 mi SW 3.5 mph - -   Partly Cloudy
9:50 AM 55.4 °F - 46.4 °F 72% 30.12 in 6.2 mi WNW 4.6 mph - N/A   Partly Cloudy
10:50 AM 62.6 °F - 46.4 °F 55% 30.12 in 6.2 mi NW 8.1 mph - N/A   Scattered Clouds
11:50 AM 62.6 °F - 42.8 °F 48% 30.12 in 6.2 mi West 8.1 mph - N/A Thunderstorm Thunderstorm
12:50 PM 59.0 °F - 41.0 °F 51% 30.12 in 6.2 mi SW 5.8 mph - N/A Thunderstorm Thunderstorm
1:50 PM 60.8 °F - 39.2 °F 45% 30.12 in 6.2 mi South 16.1 mph - N/A Thunderstorm Thunderstorm
2:50 PM 57.2 °F - 44.6 °F 63% 30.12 in 6.2 mi South 16.1 mph - N/A Rain , Thunderstorm Light Thunderstorms and Rain
3:00 PM 58 °F - 44 °F 49%  in 6 mi South 16.1 mph - - Rain , Thunderstorm Thunderstorms and Rain
3:50 PM 60.8 °F - 39.2 °F 45% 30.12 in 6.2 mi SW 6.9 mph - N/A   Scattered Clouds
4:50 PM 59.0 °F - 41.0 °F 51% 30.15 in 6.2 mi SW 11.5 mph - N/A   Mostly Cloudy
5:50 PM 55.4 °F - 42.8 °F 63% 30.18 in 6.2 mi WNW 12.7 mph - N/A   Mostly Cloudy
6:50 PM 51.8 °F - 44.6 °F 76% 30.18 in 6.2 mi NE 4.6 mph - N/A   Mostly Cloudy
7:50 PM 48.2 °F - 41.0 °F 76% 30.21 in 6.2 mi East 3.5 mph - N/A   Mostly Cloudy
8:50 PM 46.4 °F - 42.8 °F 87% 30.21 in 6.2 mi Variable 2.3 mph - N/A   Scattered Clouds
9:00 PM 47 °F - 42 °F 77%  in 6 mi ENE 2.3 mph - -   Partly Cloudy
9:50 PM 48.2 °F - 42.8 °F 82% 30.21 in 6.2 mi East 5.8 mph - N/A   Scattered Clouds
10:50 PM 46.4 °F 42.9 °F 42.8 °F 87% 30.21 in 6.2 mi ENE 6.9 mph - N/A   Scattered Clouds
11:50 PM 46.4 °F - 42.8 °F 87% 30.24 in 6.2 mi WNW 2.3 mph - N/A   Scattered Clouds